Flag for Germany Past Weather in Rotenburg (Wümme), Lower Saxony, Germany — Yesterday and Last 2 Weeks

Now
75 °F

Scattered clouds.


Feels Like: 77 °F
Forecast: 60 / 72 °F
Wind: 9 mph from Northeast

Location: Bremen Airport

Current Time: May 31, 2016 at 6:18:17 PM

Latest Report: May 31, 2016 at 5:20 PM


Visibility: N/A

Pressure: 29.86 "Hg

Humidity: 61%

Dew Point: 61 °F

Location of Rotenburg (Wümme)Location

Past Weather in Rotenburg (Wümme) — Graph

°F

Rotenburg (Wümme) Temperature Yesterday

Maximum temperature yesterday: 79 °F (at 2:20 PM)
Minimum temperature yesterday: 59 °F (at 3:50 AM)
Average temperature yesterday: 67 °F

High & Low Weather Summary for the Past Weeks

 TemperatureHumidityPressure
High79 °F (May 22, 1:50 PM)100% (May 18, 4:20 AM)30.07 "Hg (May 18, 4:20 AM)
Low39 °F (May 18, 4:20 AM)43% (May 19, 1:50 PM)29.62 "Hg (May 30, 3:20 PM)
Average59 °F79%29.90 "Hg
* Reported May 16 4:20 PM — May 31 4:50 PM, Rotenburg (Wümme), Weather by CustomWeather, © 2016

Note: Actual official high and low records may vary slightly from our data, if they occured in-between our weather recording intervals... More about our weather records

Advertising

Rotenburg (Wümme) Weather History for the Previous 24 Hours

Scroll right to see more
 ConditionsComfort  
Time TempWeatherWind HumidityBarometerVisibility
4:50 PM
Tue, May 31
75 °FScattered clouds.2 mph54%29.86 "HgN/A
4:20 PM77 °FScattered clouds.3 mph51%29.86 "HgN/A
3:50 PM77 °FScattered clouds.6 mph51%29.86 "HgN/A
3:20 PM75 °FScattered clouds.6 mph54%29.86 "HgN/A
2:50 PM75 °FScattered clouds.6 mph57%29.86 "HgN/A
2:20 PM75 °FScattered clouds.8 mph57%29.86 "HgN/A
1:50 PM73 °FScattered clouds.8 mph61%29.86 "HgN/A
1:20 PM72 °FScattered clouds.7 mph65%29.86 "HgN/A
12:50 PM72 °FScattered clouds.6 mph65%29.86 "HgN/A
12:20 PM72 °FPassing clouds.7 mph65%29.83 "HgN/A
11:50 AM70 °FScattered clouds.6 mph69%29.83 "HgN/A
11:20 AM70 °FScattered clouds.5 mph73%29.83 "HgN/A
10:50 AM70 °FScattered clouds.5 mph69%29.83 "HgN/A
10:20 AM68 °FScattered clouds.5 mph73%29.83 "HgN/A
9:50 AM66 °FScattered clouds.5 mph83%29.83 "HgN/A
9:20 AM64 °FScattered clouds.6 mph88%29.83 "HgN/A
8:50 AM64 °FScattered clouds.5 mph88%29.80 "HgN/A
8:20 AM64 °FPartly sunny.5 mph88%29.80 "HgN/A
7:50 AM63 °FPartly sunny.5 mph94%29.80 "HgN/A
7:20 AM63 °FPartly sunny.3 mph94%29.80 "Hg4 mi
6:50 AM63 °FPartly sunny.3 mph94%29.77 "Hg4 mi
6:20 AM63 °FPartly sunny.5 mph94%29.77 "Hg4 mi
5:50 AM63 °FPassing clouds.5 mph94%29.77 "Hg3 mi
5:20 AM63 °FPassing clouds.5 mph94%29.77 "Hg4 mi
4:50 AM63 °FPassing clouds.6 mph94%29.77 "Hg5 mi
4:20 AM63 °FPassing clouds.6 mph94%29.74 "HgN/A
3:50 AM63 °FPassing clouds.6 mph94%29.74 "HgN/A
3:20 AM63 °FPassing clouds.6 mph94%29.74 "HgN/A
2:50 AM61 °FPassing clouds.7 mph100%29.74 "HgN/A
2:20 AM61 °FClear.3 mph100%29.74 "Hg10 mi
1:50 AM61 °FClear.6 mph100%29.74 "Hg10 mi
1:20 AM63 °FClear.6 mph94%29.74 "Hg10 mi
12:50 AM63 °FClear.6 mph94%29.71 "Hg10 mi
12:20 AM63 °FPassing clouds.7 mph94%29.71 "HgN/A
11:50 PM
Mon, May 30
64 °FPassing clouds.7 mph94%29.71 "HgN/A
11:20 PM64 °FPartly cloudy.6 mph94%29.71 "HgN/A
10:50 PM64 °FPartly cloudy.6 mph94%29.71 "HgN/A
10:20 PM64 °FBroken clouds.8 mph88%29.71 "HgN/A
9:50 PM64 °FBroken clouds.8 mph88%29.71 "HgN/A
9:20 PM64 °FPartly sunny.9 mph88%29.68 "HgN/A
8:50 PM64 °FPartly sunny.7 mph88%29.65 "HgN/A
8:20 PM64 °FPartly sunny.7 mph88%29.65 "HgN/A
7:50 PM66 °FSprinkles. Broken clouds.14 mph83%29.65 "HgN/A
7:20 PM68 °FSprinkles. Broken clouds.10 mph83%29.68 "HgN/A
6:50 PM68 °FThunderstorms. Scattered clouds.9 mph78%29.65 "HgN/A
6:20 PM72 °FScattered showers. Scattered clouds.8 mph78%29.65 "HgN/A
Weather by CustomWeather, © 2016

See weather overviewHow to use our weather pages